Theta_e
352 351 353 357 356 356 356 355 354 354 355 354 355 356 355 356 356 356 357 357 356 356 355 354 353 353 353 353 352 352 352 352 352 352 352 352 352 351 351 351 351 352 352 353 353 353 353 353 353 353 352 352 354 354 353 352 352 351 351 350 350 350 349 348 348 348 347 347 348 348 348 348 348 349 349 349 349 348 346 345 343 340 340 341 344
351 352 354 355 356 356 355 355 354 354 354 354 355 355 355 355 356 356 356 356 356 355 354 354 353 353 352 352 352 351 351 352 352 352 352 352 351 351 351 351 351 352 352 353 352 352 352 352 352 353 353 354 353 353 353 352 351 350 350 350 350 350 350 349 349 347 347 348 348 348 348 348 347 348 348 348 347 346 345 345 344 340 340 344 344
353 353 354 355 356 356 355 355 354 354 354 354 354 355 355 356 356 356 356 356 355 354 354 353 353 352 352 352 352 351 352 352 352 352 351 350 350 351 351 351 351 351 351 352 352 352 352 352 353 353 353 354 354 353 351 351 352 352 351 350 349 349 348 348 349 349 349 349 349 349 348 348 347 346 347 347 346 345 345 346 345 344 340 344 343
351 352 354 356 356 356 355 354 353 353 353 353 353 354 354 355 355 355 355 355 355 354 353 353 352 352 352 352 351 351 352 352 352 352 351 351 350 350 350 350 350 351 352 352 352 353 353 352 353 354 353 353 353 353 352 351 350 350 351 351 349 349 349 349 349 348 348 349 350 348 346 342 343 346 347 347 346 345 346 347 346 346 345 344 344
351 353 353 354 354 355 355 354 353 353 353 353 352 352 353 354 354 354 354 354 354 353 353 353 352 351 351 351 352 352 352 352 352 352 352 351 350 349 350 350 351 351 352 352 352 353 353 353 353 353 354 352 352 351 351 351 351 351 349 348 349 348 349 348 348 347 347 348 350 347 340 342 342 346 346 347 347 346 346 346 347 346 346 345 344
351 352 353 352 352 353 354 354 353 353 353 352 352 352 352 352 352 353 353 353 353 352 352 352 352 351 351 351 353 352 352 351 351 351 351 351 350 349 349 350 350 351 351 351 352 352 353 352 352 351 352 353 352 352 351 350 351 349 351 350 348 347 347 347 347 346 347 350 347 350 343 341 342 343 347 347 347 346 346 346 346 346 345 344 344
352 351 352 352 352 353 354 354 353 353 353 352 352 351 351 351 350 351 350 352 352 351 352 352 352 351 351 353 353 353 352 351 351 351 351 350 350 349 349 350 350 350 351 351 351 351 351 351 351 351 351 352 353 351 352 352 350 350 351 348 348 348 348 349 349 348 348 348 348 347 340 341 342 343 347 347 347 347 346 346 346 346 344 345 344
351 351 351 351 351 354 354 353 353 353 353 352 351 351 351 350 350 350 349 350 351 351 352 352 352 350 350 352 353 352 352 351 350 350 351 350 350 349 348 349 349 350 350 350 350 351 350 350 350 351 351 352 353 353 351 351 352 351 350 350 349 350 348 349 350 349 351 347 348 340 339 341 342 342 347 347 347 346 347 347 346 345 345 344 345
349 350 350 351 351 354 353 353 353 353 353 351 351 351 350 350 350 350 349 349 350 351 350 352 351 350 350 351 353 353 352 350 349 349 350 349 349 349 349 348 349 349 351 350 350 350 349 349 350 351 352 352 353 353 352 351 352 351 352 350 350 351 350 350 349 351 348 348 343 345 340 341 342 342 346 347 347 347 347 345 344 345 345 345 345
349 350 351 351 352 354 354 353 353 353 352 352 351 351 350 350 350 349 349 349 349 350 349 349 349 349 349 351 353 352 351 350 349 349 349 349 349 348 350 349 348 348 348 348 350 349 348 348 350 350 352 353 352 352 352 351 349 351 351 351 351 351 351 351 351 350 346 343 338 342 343 348 342 342 345 347 348 348 347 347 346 345 345 346 345
349 350 351 352 352 354 353 353 354 353 352 351 351 350 350 350 350 349 348 347 348 349 348 348 348 348 348 351 352 352 351 350 349 349 348 349 349 348 347 349 350 347 347 348 349 348 347 349 349 350 351 353 353 352 351 351 350 352 352 352 352 352 351 351 352 344 342 344 342 343 346 350 342 342 347 347 347 347 347 347 346 346 345 345 345
348 352 354 353 355 354 353 353 353 352 352 351 351 350 350 350 349 349 348 347 346 347 347 347 346 348 348 350 352 351 351 350 349 348 349 349 349 347 347 347 347 348 347 347 348 348 348 349 349 350 352 353 352 351 350 350 351 351 353 352 352 352 351 352 347 343 343 341 342 342 343 343 343 344 347 347 347 347 347 346 346 345 345 345 344
351 352 354 354 352 354 353 353 353 352 351 351 351 350 350 350 349 349 348 347 345 345 346 346 347 349 349 351 352 351 351 350 349 348 350 348 348 348 347 347 346 346 345 345 348 348 347 347 348 350 351 352 352 351 351 351 352 352 351 353 353 352 351 350 346 345 342 342 339 343 343 343 345 347 348 348 347 347 346 346 345 345 345 344 344
350 353 353 352 352 354 354 354 353 352 351 351 350 350 350 350 349 349 348 347 345 345 346 347 348 348 348 350 349 350 350 350 348 350 349 348 348 348 347 347 346 345 347 347 348 346 345 346 347 350 351 351 351 350 351 352 353 352 352 353 353 352 350 351 345 342 343 343 341 343 343 344 344 347 347 347 347 347 346 345 345 345 344 343 344
352 353 352 351 352 352 354 354 352 352 351 351 351 350 350 350 350 348 348 348 346 345 345 346 345 346 345 347 348 348 349 349 348 349 348 348 348 348 347 346 346 346 347 347 347 346 345 345 347 348 350 350 350 350 351 351 352 352 351 352 351 350 348 344 343 344 346 343 342 342 343 344 347 347 347 347 347 346 346 345 344 344 343 343 343
351 351 351 350 350 350 352 354 352 351 351 351 351 351 351 350 350 348 348 348 347 346 345 346 346 345 346 347 348 349 349 349 348 349 349 348 348 347 347 347 347 347 346 346 345 345 345 344 346 348 349 350 349 348 350 350 350 349 349 349 348 348 347 347 346 346 346 346 343 343 344 345 348 347 347 347 347 346 345 344 344 343 342 342 342
350 351 349 348 348 349 349 351 352 351 351 351 351 351 351 351 350 349 348 348 348 347 346 345 346 346 346 347 348 349 349 349 349 349 348 348 348 347 347 346 346 346 346 346 345 344 343 345 346 348 349 349 348 348 348 348 348 347 347 346 346 347 347 345 345 346 344 343 344 342 342 344 346 347 347 346 346 346 345 344 344 343 342 341 340
348 348 347 346 347 348 349 349 352 350 350 351 351 352 351 351 350 349 348 348 348 347 346 346 346 347 348 348 349 350 349 349 348 349 349 348 348 347 346 346 346 346 345 346 344 344 344 346 346 348 349 349 349 349 348 347 347 347 344 347 349 349 347 346 344 349 345 346 344 344 344 346 347 347 347 346 346 345 344 344 343 343 342 340 338
348 348 346 346 347 348 347 349 351 350 349 349 349 350 352 351 350 350 349 348 348 347 346 347 347 347 349 349 349 351 350 349 350 350 348 348 347 347 346 346 345 345 345 346 345 344 343 344 346 346 349 349 349 348 348 347 346 346 346 347 350 348 347 345 344 349 345 343 344 344 343 347 346 346 346 346 345 344 344 343 343 343 340 338 337
346 346 345 346 347 347 346 348 349 350 349 348 348 350 352 352 351 350 349 349 348 348 348 348 347 347 348 348 350 351 350 349 350 348 349 348 347 346 346 345 345 345 345 346 344 344 345 345 345 346 346 348 348 348 348 348 346 346 346 348 346 346 344 344 346 349 345 344 345 344 346 346 346 346 346 345 344 343 343 342 341 341 338 336 334
346 345 345 346 347 346 346 345 348 350 350 348 348 348 350 352 352 352 351 350 349 348 348 348 347 346 347 348 349 349 349 349 348 346 349 346 347 346 346 346 345 345 345 345 344 343 344 344 344 344 346 348 349 348 347 347 348 346 346 348 346 345 343 346 347 345 343 344 344 343 346 345 345 345 345 345 344 343 341 340 339 337 334 332 330
343 343 344 345 345 345 345 345 345 350 350 349 348 349 350 350 349 349 349 349 349 349 347 345 347 344 347 346 347 348 348 347 347 350 346 347 346 347 346 345 345 345 344 345 345 344 343 344 344 344 343 347 349 346 346 348 348 347 346 348 345 344 344 346 347 343 342 343 344 344 345 345 345 344 344 344 344 342 341 339 335 333 331 329 328
341 342 343 344 344 345 345 344 345 348 351 350 350 350 348 348 348 348 348 350 348 347 345 344 342 341 343 344 345 346 346 346 347 348 348 349 347 347 346 345 345 344 344 344 345 344 344 343 343 342 343 346 347 345 344 344 343 347 347 347 345 345 346 346 344 342 342 343 343 345 345 345 344 344 344 343 343 341 337 334 332 331 329 328 328
342 342 342 344 344 343 346 344 344 347 349 350 349 349 347 346 348 348 347 348 347 346 344 344 340 339 338 341 343 344 344 347 347 351 350 348 347 347 346 346 345 345 344 343 345 344 344 344 344 343 345 340 339 338 341 345 341 341 345 343 343 344 345 346 346 341 342 344 343 345 345 344 344 343 343 342 341 338 335 334 332 331 330 330 329
343 343 343 343 343 345 348 346 346 347 348 351 350 348 348 346 348 347 347 347 346 346 346 345 341 339 338 341 340 342 341 344 345 347 347 346 346 345 344 343 342 342 344 342 341 339 343 335 334 341 337 333 332 333 338 345 345 339 340 341 343 344 343 345 345 342 342 342 343 344 344 343 343 343 342 340 338 336 334 333 332 331 330 330 330
345 342 341 343 344 345 348 346 349 348 348 350 350 349 348 345 347 347 347 347 347 347 347 345 342 342 339 339 339 341 342 342 341 342 346 344 344 343 343 342 342 340 343 340 340 338 337 334 332 331 331 332 330 330 335 340 340 340 337 340 344 343 342 344 343 342 341 342 342 344 343 343 342 342 341 339 337 335 333 332 331 330 330 330 330
341 342 343 343 346 345 344 347 349 349 349 351 351 349 347 348 348 349 347 347 347 347 346 345 343 344 341 339 340 339 340 341 337 341 342 344 342 342 342 341 340 338 342 339 339 339 336 333 333 332 331 330 330 330 333 338 339 336 338 342 344 344 343 344 344 341 341 341 342 343 342 342 342 341 339 338 335 333 332 330 329 329 329 329 329
341 343 342 344 346 343 345 346 349 349 349 350 350 349 348 348 348 348 348 347 347 347 346 345 344 345 344 341 344 339 338 344 339 340 340 343 342 342 341 340 339 338 341 338 337 338 336 333 332 333 331 329 328 331 333 336 334 334 337 340 341 340 341 344 344 342 340 340 340 341 342 341 340 339 338 336 333 331 331 330 330 330 328 328 328
340 343 343 344 344 345 344 346 347 348 349 351 348 349 349 348 348 348 348 349 348 347 345 345 343 343 346 344 344 344 340 342 340 339 340 341 342 342 341 338 338 338 342 337 335 338 338 334 331 332 333 332 332 339 333 333 335 333 336 338 340 338 340 340 341 343 338 339 338 339 340 339 337 336 335 334 332 332 331 331 331 330 330 329 327
343 344 344 344 344 344 343 345 348 347 349 350 347 349 349 348 348 348 348 348 348 349 348 345 343 341 344 344 344 347 342 340 341 340 338 340 341 342 341 339 339 341 341 333 334 338 341 337 335 334 333 338 330 339 335 338 332 339 340 340 341 338 339 339 340 339 337 336 335 336 338 337 335 334 333 332 332 331 331 330 330 328 328 327 326
346 345 344 344 345 343 343 346 347 348 349 347 348 350 349 349 348 349 350 347 349 350 346 345 342 342 344 347 345 345 345 345 341 341 338 342 342 344 344 344 342 344 345 336 337 341 342 339 336 338 337 333 330 336 333 339 336 338 340 341 339 338 337 338 339 338 335 334 334 334 334 335 334 333 331 331 330 330 330 330 329 328 328 326 325
346 344 346 345 345 344 344 346 347 349 348 347 347 349 349 349 350 348 348 348 350 348 345 349 341 343 343 345 346 344 345 345 346 343 340 344 342 343 346 347 345 347 347 342 341 344 342 338 337 339 342 340 342 341 340 341 343 341 340 340 341 338 341 338 339 339 334 333 332 332 331 331 333 332 330 330 329 329 328 328 327 327 327 327 326
343 347 348 347 345 346 344 345 348 349 348 347 347 350 348 349 348 348 348 350 349 347 346 347 344 344 345 343 346 344 346 346 349 346 343 343 344 344 344 345 345 345 349 347 341 350 347 347 346 346 342 341 339 341 344 340 339 340 340 340 342 340 339 339 340 341 336 332 331 330 329 330 329 331 331 330 330 329 327 327 328 328 328 327 326
341 347 349 347 347 350 349 348 348 349 348 349 349 350 348 348 348 348 348 349 348 346 346 349 346 344 346 343 345 343 346 347 348 346 346 344 345 344 342 344 345 346 344 345 347 345 343 343 344 342 343 340 341 344 342 340 340 341 342 341 341 342 338 337 339 336 337 332 331 330 329 327 326 325 326 329 329 329 328 327 327 327 327 326 326
342 346 347 347 347 348 350 348 348 348 348 349 348 349 349 346 346 345 347 348 347 345 345 346 344 343 342 343 344 343 345 346 348 346 346 344 343 341 341 342 342 344 342 348 347 343 342 342 342 339 342 338 341 341 343 340 340 338 339 341 341 342 341 334 335 335 333 332 331 330 329 326 324 323 325 324 327 327 327 327 327 325 325 324 323
343 347 347 348 345 348 349 349 348 348 347 349 347 349 347 348 345 347 348 347 345 344 344 344 342 341 342 342 344 343 343 344 346 346 347 343 341 339 342 341 343 341 344 345 344 340 339 342 343 339 335 339 339 339 342 340 338 338 340 340 340 340 337 334 333 335 332 331 330 330 329 327 325 324 326 323 323 326 328 327 324 323 323 324 323
349 348 347 346 345 347 348 348 347 346 347 348 347 348 348 346 345 345 348 346 345 344 342 343 342 340 343 342 343 343 340 343 345 343 345 345 341 340 342 343 346 341 347 348 341 344 348 344 342 339 338 339 340 338 340 340 338 338 338 338 338 337 335 341 334 333 331 325 326 325 326 325 328 332 325 323 323 322 325 325 324 324 324 322 322
351 349 348 346 345 345 347 348 346 346 347 347 346 347 348 345 345 345 347 345 344 344 341 341 341 339 343 341 342 342 338 343 344 343 346 349 346 343 345 347 348 349 348 351 348 350 350 343 335 338 341 340 339 338 338 338 338 337 337 337 336 335 335 336 336 336 331 326 327 324 324 324 324 325 324 324 323 321 321 323 325 324 323 322 320
351 350 349 347 346 346 346 347 346 346 346 347 347 347 347 346 346 345 346 345 344 343 343 341 340 338 342 342 341 342 341 344 344 344 348 348 347 348 349 349 349 350 347 347 346 347 349 344 336 336 340 342 340 340 338 337 336 336 335 334 335 336 336 338 340 337 331 325 324 326 322 321 320 318 321 324 322 321 320 320 319 319 319 323 320
352 351 348 348 347 346 346 346 346 345 345 346 345 343 343 341 340 341 342 342 342 342 343 342 341 336 343 341 341 343 341 346 344 347 349 348 347 348 349 351 349 349 347 344 343 344 345 342 336 334 337 338 341 340 341 338 336 334 334 335 336 336 335 336 336 333 327 326 323 327 322 318 318 316 320 321 321 321 319 319 320 317 317 320 321
351 351 348 347 347 344 345 343 345 345 343 342 342 341 339 338 339 338 339 341 340 341 341 343 338 336 341 342 342 346 341 345 345 345 347 349 348 349 350 349 348 345 346 345 347 347 343 341 340 338 337 334 336 339 341 337 333 330 332 332 332 336 336 335 334 332 327 325 323 323 324 319 318 317 316 320 321 321 320 318 316 315 315 315 318
349 350 348 347 347 345 345 343 344 345 344 343 342 342 341 339 338 337 340 340 339 338 338 342 339 337 342 343 343 345 343 345 345 344 347 348 347 348 348 348 347 345 347 348 347 347 345 341 336 333 337 336 335 336 336 337 329 326 324 325 328 331 334 334 332 331 331 324 324 323 324 319 317 315 318 317 316 320 320 318 316 316 313 314 314
349 349 348 348 347 345 345 345 344 345 344 344 343 342 343 343 340 339 340 340 340 341 339 342 341 336 341 343 346 344 344 344 345 344 346 347 347 347 346 347 347 347 346 346 346 345 345 343 339 335 332 336 336 337 337 336 330 329 327 324 321 321 325 327 330 331 330 327 323 321 322 319 317 315 317 314 314 314 313 315 316 317 313 311 311
349 348 348 348 346 345 345 345 345 345 344 344 344 345 345 346 345 343 342 341 338 340 344 344 343 336 337 342 346 344 344 343 343 343 343 345 347 347 347 346 347 347 346 345 345 345 342 343 342 340 335 330 331 333 338 337 331 328 321 322 322 321 317 320 323 327 330 326 325 321 322 320 318 315 314 313 312 311 312 313 313 316 316 315 311
349 348 349 348 347 345 345 344 345 344 345 345 345 345 345 345 344 344 343 344 344 340 341 339 342 336 335 339 341 345 344 343 343 342 341 345 347 347 346 346 347 347 347 345 343 344 343 341 342 340 337 333 330 331 332 337 337 333 331 324 321 319 318 321 322 324 327 324 323 324 323 321 318 315 313 312 312 310 311 312 313 315 315 315 315
349 349 349 349 349 347 345 345 345 345 345 346 346 345 344 342 342 340 336 336 337 336 335 336 339 335 332 337 339 344 344 342 343 342 341 344 346 347 347 345 346 347 346 345 345 346 344 341 341 340 339 337 332 330 331 336 338 335 335 334 332 324 324 322 322 316 325 326 324 323 322 321 320 317 313 313 312 310 313 312 316 315 315 315 315
349 351 350 350 350 348 347 346 345 345 347 347 346 345 343 342 341 339 338 336 337 338 340 343 341 338 338 338 339 343 343 342 342 342 342 342 346 346 347 346 346 347 346 345 344 346 345 343 342 341 340 338 334 328 329 332 335 336 336 336 335 334 334 324 319 320 315 321 324 321 320 320 321 319 314 314 313 313 312 311 312 313 313 315 315
350 350 350 350 349 348 347 346 346 345 346 347 345 345 343 342 341 339 339 338 339 339 340 342 345 342 340 340 339 342 342 342 342 341 342 343 344 346 346 346 345 345 344 343 344 346 346 344 344 342 341 340 338 334 333 333 331 331 335 334 334 334 334 331 330 325 320 315 315 322 322 320 320 319 318 314 314 313 313 312 311 311 313 312 313
349 348 348 350 350 349 347 347 346 346 346 346 344 345 345 344 342 340 339 340 340 342 342 342 344 344 341 341 338 338 340 341 341 342 341 342 343 344 345 345 345 344 343 343 344 346 346 343 343 342 341 340 340 339 336 334 334 332 332 332 333 332 331 331 331 329 322 319 317 316 315 320 321 319 319 320 317 316 315 312 311 311 313 313 312
349 349 349 350 349 348 347 347 347 346 346 347 345 345 346 345 343 341 341 340 340 342 342 341 343 344 341 340 339 338 338 340 340 340 341 341 343 343 344 344 345 344 342 343 343 344 345 344 344 342 341 340 341 338 336 336 334 334 334 333 330 329 328 327 325 324 323 322 318 316 316 314 313 316 320 319 319 318 314 313 313 312 312 313 313
350 349 348 348 348 347 347 346 348 348 346 347 346 345 346 345 343 342 342 341 340 341 341 341 342 343 342 340 340 339 339 340 342 341 341 342 344 343 343 344 345 344 343 342 342 343 345 344 344 343 342 340 339 338 337 336 335 336 335 333 330 329 326 323 323 323 321 319 318 318 317 316 314 314 317 319 318 317 314 314 312 312 312 313 312
Wind_Speed
16 19 17 20 19 19 19 18 18 17 16 14 14 13 15 14 14 15 14 15 15 15 15 15 15 15 14 14 13 12 13 13 14 14 14 14 14 14 14 14 13 13 13 13 13 13 12 11 11 11 11 12 12 12 12 12 12 12 12 11 11 11 11 12 12 12 13 13 14 14 15 14 14 15 15 17 18 18 16 16 16 12 9 13 17
19 18 16 17 20 19 19 19 18 18 16 15 14 14 14 15 14 14 15 15 14 14 15 15 15 15 14 14 13 12 13 12 12 14 14 14 13 14 13 13 13 12 12 12 12 12 11 10 10 10 11 11 11 11 11 11 11 11 11 10 10 9 10 10 11 11 11 12 12 14 15 16 16 16 16 17 18 18 16 16 17 10 7 15 17
18 17 15 18 20 19 19 19 19 18 17 16 15 15 14 14 14 14 14 13 13 13 14 14 14 14 14 14 13 13 12 12 11 13 14 14 13 13 13 12 12 12 12 12 12 11 10 10 9 10 10 10 10 10 10 10 10 11 10 9 8 7 7 8 8 9 10 12 13 15 16 16 16 15 16 15 15 16 16 16 16 15 10 16 15
20 15 15 18 20 19 19 19 19 18 17 16 15 15 14 15 15 15 15 15 13 13 13 14 14 14 14 14 13 12 12 11 11 12 13 13 13 12 12 12 12 12 11 11 11 10 9 9 9 8 8 9 8 8 8 9 9 9 9 7 6 5 5 5 5 6 6 10 13 11 7 7 11 15 15 14 15 14 14 15 16 16 16 15 16
19 17 16 16 17 19 19 19 19 19 18 17 16 15 15 14 13 14 15 16 14 13 13 13 13 14 14 13 13 12 12 11 11 10 13 13 13 12 12 11 11 11 11 11 10 10 8 8 7 8 7 8 8 8 7 7 7 6 7 6 4 3 2 3 3 4 4 5 7 1 7 8 8 13 14 14 14 14 14 14 13 13 15 17 15
18 16 16 15 15 17 20 20 20 20 19 17 17 16 15 14 14 13 13 15 14 14 13 13 13 13 13 13 13 12 12 11 11 11 12 13 12 12 12 11 11 11 11 10 9 9 8 7 7 7 7 7 7 7 6 5 5 5 4 5 3 2 2 2 0 2 3 4 6 2 2 7 8 9 13 12 12 12 14 14 14 13 12 15 15
20 15 15 15 14 15 20 19 21 20 19 19 18 16 15 15 15 14 14 14 14 14 14 13 13 13 13 13 13 13 12 11 11 11 13 12 12 11 12 11 10 10 11 10 9 7 7 6 6 6 6 6 7 6 5 4 4 3 3 2 1 2 4 5 6 5 4 4 3 5 4 8 7 7 12 11 11 11 12 13 14 14 14 14 15
15 14 15 14 14 17 19 19 21 21 20 19 18 17 16 16 15 14 14 14 13 14 15 14 13 12 13 13 13 13 12 12 11 11 13 11 11 11 11 11 10 9 10 9 7 6 5 5 5 5 5 6 6 6 4 3 3 3 1 1 1 3 4 6 8 8 10 5 7 3 8 8 7 7 11 12 11 10 12 14 14 13 14 15 14
15 16 15 15 15 20 18 19 18 21 20 20 18 18 17 16 16 15 13 13 14 12 14 15 14 13 12 13 13 14 12 11 11 11 11 11 10 10 10 11 9 9 8 8 7 5 5 4 5 5 5 6 6 6 4 2 2 2 2 2 3 2 4 6 8 10 6 1 5 3 9 9 8 7 10 12 12 13 11 11 12 14 15 14 14
16 15 14 13 15 19 18 18 17 19 20 20 19 18 17 16 16 15 14 13 14 12 11 14 14 13 12 13 14 13 11 11 11 10 10 10 10 10 9 9 10 8 8 8 7 5 4 4 4 5 5 6 6 5 4 2 1 1 2 2 3 3 4 6 8 10 8 12 7 9 10 12 8 8 10 12 13 14 14 15 12 12 11 14 15
17 14 13 14 19 18 18 17 18 18 20 20 19 19 17 17 16 15 14 13 14 13 12 12 14 12 12 14 14 14 12 11 11 10 10 11 10 10 10 8 8 8 8 8 5 4 3 3 4 5 5 6 6 5 3 3 1 1 2 3 3 3 4 5 8 7 8 8 8 7 10 14 7 6 11 13 13 14 14 14 14 14 14 15 15
16 13 14 14 19 19 17 17 18 18 19 19 19 18 18 17 16 15 14 13 13 14 13 12 12 13 12 15 14 14 13 12 11 11 11 11 10 11 10 9 8 7 7 6 5 4 3 4 4 5 5 5 5 5 3 3 3 2 2 2 2 2 4 8 7 7 7 7 9 7 10 9 8 9 13 13 12 13 14 14 14 15 15 15 15
15 14 14 15 16 19 18 16 17 18 19 19 18 18 17 17 15 15 14 13 14 14 14 13 11 11 10 14 14 14 13 12 11 11 12 12 11 10 10 8 8 7 6 6 5 4 3 3 3 4 4 5 5 5 4 4 4 3 1 1 0 2 4 6 6 4 4 6 8 5 9 6 7 11 12 13 13 13 14 15 15 14 15 15 15
15 14 14 14 14 19 18 16 16 17 18 18 18 17 17 16 15 15 14 13 13 14 14 13 10 9 8 11 13 14 12 11 12 10 12 13 12 10 9 8 7 7 7 5 4 3 2 2 3 4 5 6 6 5 5 5 5 3 0 1 4 5 6 1 7 5 5 6 8 6 8 5 6 11 12 13 12 13 14 15 15 15 15 14 14
16 17 15 14 15 16 20 17 15 15 15 16 16 16 17 15 15 15 14 14 12 13 13 13 12 11 10 11 11 11 12 11 12 11 12 13 11 10 9 8 7 7 7 5 4 3 2 2 3 4 5 6 5 5 5 6 5 3 2 4 6 7 9 5 4 3 2 2 2 3 7 6 8 10 12 13 13 13 14 15 14 14 14 14 15
17 17 16 15 16 16 15 17 17 14 15 15 15 17 17 15 15 15 14 14 13 12 13 13 13 12 11 11 9 10 12 11 12 11 10 12 11 10 9 8 8 7 6 5 4 3 2 3 3 4 5 5 5 4 5 5 5 3 3 5 7 9 9 6 3 2 0 1 3 2 7 6 9 11 12 13 13 13 14 14 14 14 13 14 16
17 16 16 17 17 15 14 15 14 16 14 15 16 17 16 16 15 15 14 14 14 12 11 12 13 12 11 10 9 10 11 10 11 11 13 11 10 10 9 8 8 7 7 5 4 3 3 3 4 4 5 4 4 5 5 5 5 3 3 4 8 7 6 3 4 2 1 4 2 5 5 5 9 11 13 14 14 13 13 14 13 13 14 16 15
16 16 16 18 16 13 12 13 14 12 10 13 15 17 17 15 15 14 14 14 14 13 12 11 12 11 10 10 10 10 11 10 13 13 13 12 10 9 9 9 8 7 7 5 4 3 3 4 4 4 4 4 4 5 5 5 5 4 2 3 8 7 6 5 3 1 2 2 6 6 5 7 11 12 13 13 13 13 13 13 13 13 15 14 14
15 15 16 16 15 13 14 13 13 11 11 8 8 13 17 17 15 14 14 14 14 13 12 11 11 11 10 10 11 12 13 13 13 13 13 12 11 10 9 9 8 7 6 5 4 3 3 3 4 3 3 3 3 4 4 5 4 2 1 5 10 8 8 4 2 1 3 5 5 6 5 9 11 12 13 13 13 13 13 12 13 14 15 15 14
13 14 14 14 14 13 13 12 12 12 9 7 8 11 15 17 16 15 16 14 14 14 13 12 12 11 11 11 11 11 13 12 15 11 13 12 11 9 10 8 8 8 7 5 4 3 2 2 3 4 3 3 4 4 4 4 4 2 1 6 9 7 4 2 2 1 4 5 7 5 9 10 12 12 13 12 13 13 13 12 12 13 13 13 13
10 13 12 12 14 14 14 12 12 14 12 10 8 9 12 16 14 16 16 15 15 14 13 13 11 11 10 11 10 8 6 6 10 9 12 9 11 10 11 10 9 8 7 5 4 3 2 2 3 3 2 4 4 4 4 3 4 2 1 5 8 2 3 2 2 2 5 5 6 6 9 10 11 11 12 12 13 13 12 11 12 12 12 12 13
13 12 14 14 14 14 15 14 11 14 12 10 8 7 10 13 12 11 12 12 13 13 10 8 10 7 11 8 6 7 7 6 7 9 8 9 10 11 11 10 9 8 7 5 3 3 3 3 2 3 3 4 5 3 3 4 3 2 1 3 4 2 3 1 2 2 6 6 5 7 11 10 11 10 11 11 12 12 11 11 11 11 12 12 13
13 13 12 15 14 13 14 13 13 14 14 11 9 8 13 10 12 11 10 12 11 11 9 10 8 8 9 8 6 5 7 8 7 8 7 11 10 12 11 11 10 9 8 6 3 4 4 4 4 4 4 4 4 4 4 5 4 4 0 1 4 1 0 1 1 4 5 6 4 10 10 10 10 10 10 11 12 13 11 11 11 12 13 13 13
13 12 14 13 15 13 15 14 15 14 14 10 9 9 9 10 8 9 8 9 9 9 10 10 9 9 8 6 5 5 5 5 10 15 11 9 8 12 12 11 10 9 9 5 5 5 6 5 6 5 3 4 3 5 4 3 5 4 2 4 2 1 1 2 2 4 4 6 7 10 10 10 10 11 11 12 12 11 11 11 12 12 12 12 12
11 11 11 12 15 14 14 13 13 12 12 10 10 10 10 9 9 9 9 9 9 8 8 8 7 9 8 6 6 5 5 5 6 6 5 6 7 6 7 6 4 5 8 4 4 5 4 5 4 4 3 5 5 5 4 3 2 6 7 3 2 0 0 3 3 4 5 5 6 10 10 10 10 11 11 11 10 11 11 11 11 12 12 11 12
9 10 13 12 13 15 13 13 14 12 11 10 11 10 11 9 10 9 9 9 9 9 7 7 7 8 8 8 8 6 6 4 6 6 6 7 8 6 7 6 6 6 7 5 4 4 5 5 5 5 5 5 6 6 6 8 8 6 10 4 2 0 1 1 3 5 4 4 6 10 9 10 10 12 11 11 10 10 11 11 11 11 11 11 11
8 10 11 11 11 15 15 14 13 12 11 12 10 10 10 8 9 9 9 9 9 9 8 7 7 8 9 9 8 7 6 5 7 6 6 5 7 6 7 6 6 6 6 6 6 5 5 5 5 5 6 7 8 8 7 8 8 8 9 5 4 3 2 2 3 4 4 5 6 10 10 10 11 11 11 11 10 10 10 10 11 11 11 11 11
9 9 10 10 10 15 15 16 14 12 9 12 11 10 9 9 10 10 9 9 9 8 9 8 8 8 9 9 7 7 6 4 6 5 5 4 6 7 6 6 7 6 6 7 6 5 6 6 6 6 8 9 10 10 4 4 4 12 12 6 4 4 3 3 2 4 5 5 5 9 10 11 11 10 10 10 10 10 10 10 10 10 10 10 11
9 11 9 9 14 11 14 17 16 14 10 9 11 9 9 8 8 9 8 10 8 8 8 8 8 8 8 8 6 5 5 4 4 5 4 5 6 6 6 7 7 7 7 8 7 6 6 6 6 7 8 8 6 1 3 3 5 10 9 8 5 7 4 2 2 3 5 5 5 7 11 11 8 8 8 9 10 10 10 10 10 10 10 11 11
9 12 10 9 13 15 15 17 16 13 10 9 7 9 8 7 10 9 7 9 7 6 7 5 6 7 6 6 6 5 5 6 4 5 7 6 6 7 7 7 7 6 6 7 7 5 5 5 6 6 3 2 4 2 4 1 8 10 7 7 2 5 6 5 3 3 6 5 6 6 12 11 11 9 9 9 9 9 9 9 10 10 10 11 11
6 11 11 11 9 13 14 15 15 11 9 9 6 8 8 6 9 7 6 8 7 6 5 4 5 5 4 5 5 5 5 5 6 5 6 5 4 4 4 5 5 4 4 7 6 5 4 4 4 3 3 3 5 4 5 10 8 5 8 9 5 2 5 5 4 6 7 7 5 5 8 11 11 11 11 9 9 9 9 9 10 10 10 11 11
8 8 9 9 11 13 13 14 13 11 10 10 7 7 8 7 7 7 7 7 7 5 5 3 6 6 6 5 4 5 5 5 6 7 7 4 4 4 3 2 3 2 3 4 4 5 4 4 4 4 3 3 1 7 9 7 7 7 6 9 6 4 3 4 5 5 5 7 7 6 6 7 11 11 11 10 9 9 9 9 9 10 10 10 10
10 9 8 10 11 10 12 13 14 12 11 9 7 5 8 7 7 6 7 7 5 5 4 3 5 5 6 8 5 7 6 6 5 6 6 4 5 4 3 3 3 4 2 3 6 2 1 2 2 1 3 3 5 5 7 7 5 6 5 5 5 6 6 5 3 5 3 9 6 6 6 6 6 10 12 10 10 9 9 9 9 9 9 9 8
11 6 6 8 8 5 5 9 12 13 12 8 7 3 6 6 7 5 6 6 5 5 4 3 5 5 5 9 7 7 6 6 5 5 4 5 4 4 4 4 3 4 3 4 2 2 2 2 1 0 2 4 7 4 5 6 5 4 4 3 3 3 4 4 5 2 5 6 7 7 7 6 5 4 6 10 9 9 9 8 8 8 8 8 8
12 7 9 10 11 7 5 8 12 12 12 9 8 6 5 5 6 6 7 6 6 5 5 4 5 5 5 7 8 7 7 6 5 5 4 4 4 5 5 4 4 3 4 2 2 3 3 2 1 2 2 6 5 3 4 5 5 5 3 2 2 2 2 6 7 7 7 7 7 8 8 8 6 6 6 5 8 9 9 8 8 7 7 7 6
14 10 10 11 12 10 7 10 12 12 12 9 9 6 6 5 6 6 6 7 6 6 6 4 6 6 6 7 8 8 8 6 5 6 5 4 5 5 5 5 4 4 3 3 3 3 4 3 2 7 2 4 2 3 2 4 4 4 3 2 1 0 3 5 7 6 7 5 8 7 8 9 9 7 8 6 4 6 10 9 8 8 7 7 7
13 12 12 12 12 10 9 13 12 13 11 10 10 7 7 7 7 7 7 8 6 6 6 5 7 6 6 8 9 8 9 7 6 6 6 4 5 5 4 5 4 4 3 3 5 3 1 3 9 4 5 3 2 3 3 3 4 3 3 1 1 1 4 1 3 4 3 6 4 4 4 6 9 10 8 7 6 5 8 10 9 9 7 4 6
11 12 13 14 14 11 8 12 11 12 10 10 10 8 6 7 6 6 8 8 7 6 7 6 6 6 6 8 9 7 9 7 7 7 6 4 4 5 4 4 4 4 3 2 2 1 1 7 8 4 2 4 2 2 3 3 3 3 2 1 1 5 5 2 3 2 3 4 3 4 4 5 5 6 8 8 7 6 5 8 11 10 8 7 5
10 11 12 13 12 11 9 9 12 11 10 9 9 7 5 6 6 6 8 9 6 7 6 6 6 7 6 8 10 8 8 8 8 8 6 4 3 3 3 5 5 4 5 4 3 3 2 9 9 3 2 1 2 3 3 4 4 3 2 2 4 3 1 1 0 0 2 4 4 3 6 3 3 3 5 8 8 7 6 5 4 4 5 10 7
13 12 14 13 12 12 10 9 9 11 9 8 8 7 6 7 7 7 7 8 7 7 7 6 7 7 6 8 10 9 9 8 9 8 7 6 5 4 3 4 5 4 5 5 5 5 4 7 10 7 4 2 3 3 2 4 4 3 1 2 1 1 0 0 0 3 3 4 4 2 4 5 4 4 4 7 8 8 7 7 6 6 6 9 11
15 15 15 15 14 14 13 13 10 11 10 10 9 9 9 9 8 8 8 8 7 7 7 5 8 7 7 9 11 8 10 8 9 7 6 6 5 4 5 5 4 4 5 5 4 4 6 5 7 3 5 6 3 2 2 4 5 4 2 1 2 1 1 1 2 5 4 4 4 3 3 5 4 4 4 4 9 9 8 8 7 7 7 6 7
14 15 16 16 15 15 14 14 12 12 11 11 10 10 9 9 8 8 7 8 9 9 8 6 8 8 7 8 11 9 10 8 7 8 6 6 6 5 5 5 5 6 5 5 4 4 7 8 9 6 4 4 4 4 4 4 3 5 5 2 1 1 2 2 4 6 2 5 6 5 4 5 5 5 4 4 4 7 8 8 8 7 7 7 6
16 16 16 15 15 15 13 13 12 12 11 11 11 11 9 8 8 8 8 8 9 8 8 7 7 9 6 7 8 10 10 8 8 8 7 7 6 5 7 6 5 5 5 5 5 6 5 7 10 11 7 3 2 2 6 5 4 5 4 3 3 3 3 3 5 6 6 3 6 6 5 5 6 6 5 4 3 4 4 5 6 5 8 7 7
13 12 12 14 14 13 13 13 13 12 12 12 11 10 9 8 8 8 8 9 9 9 7 7 7 9 8 8 7 9 9 8 9 8 8 7 7 6 5 7 6 5 5 5 5 5 6 5 6 7 9 5 3 5 6 5 3 6 6 6 6 6 4 8 8 7 6 5 4 6 5 6 6 7 6 5 5 5 5 6 5 3 4 6 7
15 15 14 14 12 15 16 16 14 13 12 12 12 10 10 8 9 7 7 5 6 8 8 8 7 8 7 8 8 10 9 8 9 9 8 7 7 6 5 6 6 6 5 5 5 6 6 6 7 7 9 8 5 4 4 6 8 8 5 5 3 4 6 4 8 4 5 5 6 4 5 5 4 6 7 6 5 6 6 5 4 5 4 1 0
15 15 16 16 14 15 16 15 13 13 13 13 12 11 11 11 10 10 11 10 8 10 11 10 9 9 9 8 9 9 10 9 8 10 9 7 8 8 6 6 6 6 6 5 5 5 6 7 7 7 7 9 8 5 4 5 6 9 7 4 1 2 1 6 7 4 5 3 4 6 4 5 4 5 6 6 5 6 6 3 6 6 4 1 2
15 14 15 16 16 16 16 17 14 13 12 12 14 10 11 11 12 11 10 12 10 8 7 6 8 9 7 9 9 8 10 10 8 9 8 8 7 7 7 6 6 6 6 5 5 6 5 6 6 7 6 7 11 9 9 7 5 6 7 6 3 3 2 4 4 4 4 4 5 6 6 6 4 3 6 6 6 4 6 4 7 6 5 4 3
14 14 14 14 16 16 16 17 13 13 13 14 15 13 12 12 11 11 9 10 10 9 10 8 7 9 9 10 9 8 10 10 9 9 9 8 8 8 7 6 5 6 6 6 5 5 5 5 5 6 6 6 8 9 9 8 8 6 5 5 4 3 3 3 1 1 2 5 4 3 5 5 5 5 4 6 5 4 6 4 6 5 6 6 4
15 16 15 14 14 14 15 17 16 14 13 15 16 16 13 12 11 10 10 9 10 8 9 9 7 9 10 8 10 10 10 10 10 9 9 9 8 8 8 8 7 6 7 6 5 6 6 6 6 5 6 5 6 6 7 7 7 5 4 6 4 4 3 3 3 4 2 2 5 7 4 4 4 5 6 3 3 4 7 7 5 7 6 7 6
16 17 16 14 14 14 13 15 16 14 13 14 15 17 15 11 11 12 12 11 10 8 9 10 9 9 10 10 10 9 9 8 9 10 9 10 9 8 8 9 8 7 6 6 6 6 6 5 6 6 5 5 4 7 6 6 5 4 5 4 4 3 3 3 5 4 3 4 3 4 7 7 7 6 6 5 4 3 5 6 5 2 5 7 6
13 15 15 15 14 14 14 16 15 14 15 16 17 18 16 14 13 14 14 13 13 11 10 11 10 9 10 11 10 9 9 10 9 9 10 9 8 9 8 8 8 7 6 7 6 6 6 6 5 7 6 6 6 6 5 6 5 5 6 5 5 5 6 5 3 3 3 3 4 5 6 8 10 7 7 7 5 5 3 6 5 3 3 5 6
Wind_Direction
132 132 134 136 136 136 134 132 132 132 133 135 133 133 132 129 128 128 122 121 120 119 115 115 114 111 110 108 108 108 107 104 104 101 105 102 98 100 102 102 102 102 101 99 96 94 88 85 82 79 79 77 75 72 71 72 73 75 75 73 75 78 80 83 84 87 91 89 82 80 76 74 68 63 59 58 56 56 64 81 77 72 69 68 69
135 132 131 138 137 135 135 134 134 133 134 137 135 135 135 131 129 127 124 120 120 119 117 116 117 115 115 115 113 112 112 111 110 108 105 109 106 104 105 108 106 105 104 102 99 95 93 91 89 85 81 79 77 76 73 72 74 75 76 76 76 76 80 84 87 82 83 90 88 81 78 73 69 64 62 61 61 61 63 66 70 74 71 70 67
125 129 133 136 136 135 135 135 134 135 135 138 139 137 135 133 128 127 124 118 119 120 120 119 119 121 120 120 118 114 114 113 114 114 109 107 110 108 108 110 111 110 110 106 102 99 97 95 92 87 83 82 81 79 76 74 74 74 76 76 76 77 80 89 94 105 104 103 101 94 83 78 75 73 71 71 70 72 72 71 72 76 73 68 67
126 130 132 136 135 137 137 137 135 136 137 139 140 139 138 136 135 133 130 127 126 125 126 123 123 124 125 123 123 120 119 117 117 120 117 110 110 114 113 113 116 117 114 111 108 104 100 97 91 88 85 81 81 78 76 74 72 73 75 74 70 73 79 90 99 103 112 123 126 123 101 84 77 76 75 75 73 73 73 73 75 78 79 73 65
127 131 133 139 139 139 139 139 139 138 138 139 142 139 140 139 139 136 134 131 131 132 130 127 126 125 129 127 126 127 125 123 123 127 118 117 114 118 119 120 121 121 118 115 112 109 104 97 91 86 83 80 78 78 78 78 73 72 70 72 57 52 62 93 121 135 127 166 168 197 92 90 84 76 76 75 73 69 68 74 79 80 82 75 63
131 133 136 141 143 142 142 141 141 140 140 142 141 143 142 138 135 133 133 134 135 135 133 131 130 132 131 130 128 129 128 127 127 124 124 121 122 122 124 126 126 123 121 119 116 110 104 98 91 86 83 80 76 76 75 79 87 83 79 76 54 4 335 309 97 218 188 199 234 243 109 95 86 80 79 76 74 70 70 70 64 55 61 68 65
131 135 138 141 142 145 143 142 143 143 142 142 143 144 143 142 141 140 139 132 138 139 134 135 135 135 132 128 131 130 132 130 127 122 123 125 129 130 127 130 129 126 125 121 116 108 103 100 94 84 78 79 77 73 74 75 86 94 91 93 82 320 320 321 324 325 306 283 250 235 108 95 90 81 74 72 69 75 82 73 62 54 57 69 70
129 137 141 141 143 147 145 144 146 144 142 143 144 145 145 144 142 140 142 138 141 146 140 139 138 139 134 132 133 133 132 133 130 125 128 133 134 132 130 131 132 131 126 124 117 107 104 100 94 85 78 76 78 76 71 83 89 114 132 170 202 295 304 323 329 321 322 323 296 124 97 95 90 82 75 71 70 68 73 82 73 60 57 58 61
135 139 142 139 142 144 144 145 146 145 144 145 145 145 145 145 142 141 141 148 143 148 147 143 145 140 137 134 133 134 135 137 134 132 136 139 135 132 136 136 138 133 129 126 118 100 88 86 81 80 77 73 75 78 75 64 92 143 171 219 230 266 304 319 317 320 307 262 238 108 105 104 96 88 78 76 72 73 75 63 67 67 64 63 64
138 140 138 133 141 143 142 143 145 146 144 144 145 145 144 142 140 138 141 144 149 144 147 152 149 146 145 138 135 136 139 139 143 142 141 141 138 141 138 140 140 137 135 133 108 96 86 74 70 67 67 70 72 74 79 73 56 140 204 226 242 268 293 306 321 329 355 340 58 60 78 85 85 83 83 79 76 76 74 75 73 70 68 68 69
139 138 132 132 141 140 141 143 145 146 146 145 144 145 144 141 139 138 139 140 145 145 147 151 151 149 150 143 140 141 142 145 145 147 150 144 144 140 137 140 140 143 142 133 116 101 84 67 57 54 54 56 62 66 72 90 115 139 194 223 236 278 307 315 355 48 0 343 323 83 80 85 83 87 87 81 79 79 78 77 75 74 73 71 70
137 125 125 130 135 139 141 144 145 145 146 145 144 143 142 140 138 137 137 139 143 147 147 151 152 148 160 142 141 142 145 148 147 150 148 144 138 136 140 139 148 148 142 133 120 104 74 55 48 51 49 51 55 57 61 90 114 148 181 214 242 308 347 354 30 16 18 19 295 55 79 87 91 92 89 86 83 80 79 78 76 75 73 72 70
126 126 126 131 139 140 142 145 145 147 146 145 144 143 140 139 138 137 137 140 142 144 146 149 150 156 159 139 140 144 146 150 152 151 153 144 136 131 133 142 146 148 143 137 111 90 74 63 50 47 47 50 54 60 72 89 104 119 178 199 322 28 22 355 68 66 18 359 0 20 81 77 84 90 91 91 87 83 82 81 79 76 74 72 70
126 117 127 137 139 142 141 144 146 147 147 145 144 142 139 138 139 138 138 138 141 144 145 146 145 147 145 143 139 143 151 157 151 157 152 148 139 134 136 137 143 148 132 115 104 101 99 68 53 43 41 46 58 65 76 89 94 101 211 56 52 46 13 18 66 43 4 31 44 297 73 66 77 86 92 93 94 92 88 85 81 78 74 72 72
126 129 133 139 140 145 142 143 146 147 145 144 143 139 137 139 140 139 138 137 139 141 145 145 144 149 148 139 137 146 154 165 153 156 157 145 147 145 143 146 153 151 150 138 127 131 119 91 61 44 41 47 56 74 80 88 90 78 54 35 59 51 20 19 54 76 93 153 174 92 87 88 94 101 96 93 94 93 89 85 81 78 74 73 75
132 136 134 138 145 145 146 146 147 148 146 146 143 140 139 141 141 141 141 138 138 143 146 149 149 151 146 146 150 153 156 161 154 154 147 146 147 147 149 146 147 150 154 154 146 158 130 94 72 57 51 54 65 76 91 89 87 78 46 41 51 46 43 17 28 61 320 87 71 44 83 91 99 98 99 97 93 91 88 85 82 79 75 75 76
135 135 138 143 147 146 149 151 147 151 150 147 145 142 142 141 142 144 142 141 141 140 145 148 147 146 148 153 159 161 159 158 153 146 144 150 152 150 151 154 155 159 162 162 162 160 135 100 80 69 64 71 80 87 96 98 94 81 40 53 57 53 59 50 78 38 309 49 158 103 100 94 103 102 101 102 98 93 87 84 80 78 79 78 75
138 139 144 147 149 149 149 152 145 152 153 150 149 146 142 142 144 144 143 143 143 143 144 145 140 142 148 156 162 165 159 159 150 146 149 151 155 153 156 157 158 163 169 165 173 161 135 101 87 80 79 84 92 99 101 104 100 80 35 8 67 54 41 59 90 164 156 105 76 87 87 109 108 106 103 102 101 95 89 84 81 82 83 79 76
135 136 143 147 150 148 151 151 155 149 153 158 154 150 145 143 146 147 144 145 145 147 146 142 144 151 152 160 164 169 159 157 149 150 153 157 158 160 165 162 159 172 169 171 171 171 143 112 89 89 96 95 110 112 111 109 113 98 15 39 55 51 45 58 7 335 61 72 79 85 100 110 107 104 104 102 99 94 87 82 81 82 82 78 74
139 140 144 148 149 153 154 157 157 155 152 156 158 154 149 147 149 149 147 147 148 148 148 147 151 152 154 157 157 165 160 157 159 159 160 164 161 171 168 168 166 170 171 175 177 177 168 124 108 100 116 132 128 133 131 130 114 127 14 61 65 38 37 22 357 350 93 82 85 87 109 110 107 107 106 106 100 93 87 84 81 80 78 77 75
138 145 149 148 152 156 154 158 161 158 152 156 159 158 157 154 151 153 148 148 149 150 151 152 152 158 157 156 151 156 160 161 161 169 166 168 173 174 170 168 174 175 173 180 187 185 186 162 143 122 138 155 150 138 146 135 121 129 213 82 77 46 51 10 318 46 77 89 97 100 103 105 106 109 108 104 99 98 94 87 85 85 82 79 78
147 153 155 152 159 160 161 161 165 157 161 158 158 161 158 158 154 157 155 151 151 151 153 157 163 161 167 164 169 167 162 182 179 169 173 176 175 172 174 176 173 178 182 178 198 204 203 203 191 180 177 177 172 175 153 158 147 171 207 80 64 47 58 349 293 87 88 85 98 113 113 111 111 111 111 107 101 97 94 92 91 88 85 84 84
155 155 157 161 163 161 161 162 166 166 162 159 158 157 161 166 159 163 161 158 157 156 161 166 164 167 176 174 188 188 178 176 179 170 188 172 174 174 173 180 178 182 184 191 208 221 226 224 220 216 207 199 203 231 175 166 171 173 224 108 68 16 104 233 81 70 83 96 97 115 114 112 112 112 108 103 100 97 95 94 92 91 91 90 90
159 159 155 163 164 161 157 164 169 169 163 162 157 154 163 171 160 165 163 164 161 170 169 170 176 164 177 175 192 196 201 172 186 181 194 172 163 174 174 179 187 185 189 194 215 236 234 244 241 231 213 218 220 231 200 155 157 158 149 75 101 65 8 313 61 92 108 110 111 113 114 116 115 116 112 104 99 101 99 99 97 97 97 97 95
159 153 156 165 165 156 159 163 166 169 168 160 159 158 168 172 165 169 168 168 172 179 171 181 181 165 163 169 196 207 206 183 181 173 182 175 157 176 174 183 185 196 194 204 196 207 196 217 212 207 221 220 219 224 197 121 60 168 85 341 83 201 174 5 52 82 78 94 111 118 118 116 116 116 108 104 105 105 105 104 103 102 102 99 97
154 157 163 166 169 156 161 163 159 172 172 157 161 161 169 173 171 171 166 170 175 182 169 183 191 160 155 169 188 202 204 202 173 173 190 180 164 182 181 189 189 204 180 212 205 200 179 216 205 193 210 231 222 220 197 156 181 133 124 198 142 70 35 63 71 86 92 106 117 120 120 119 121 114 109 107 109 110 110 108 108 106 104 103 99
165 162 163 168 159 163 163 156 160 170 174 161 163 162 173 177 167 172 167 172 175 178 171 185 185 158 157 170 194 180 204 214 163 178 198 179 168 184 185 195 201 203 171 195 217 199 184 205 218 191 202 222 233 223 216 165 165 123 97 174 143 153 119 97 88 106 120 104 117 119 117 123 122 113 115 115 114 115 113 113 110 110 108 106 102
168 160 169 162 158 167 163 160 161 171 174 168 164 165 178 170 172 170 174 169 173 181 171 187 179 164 165 171 185 169 198 216 163 172 186 193 182 195 181 193 209 203 178 188 209 209 189 197 224 202 201 217 230 230 188 127 110 97 138 161 156 125 130 111 134 126 120 118 114 116 117 118 115 112 114 116 118 118 119 117 118 116 114 108 105
179 159 168 171 161 172 167 163 163 170 171 180 163 168 180 171 166 165 180 164 178 183 174 187 165 164 166 166 170 162 173 226 167 175 198 202 199 189 191 196 201 202 177 188 202 212 194 192 215 225 200 220 239 221 130 128 127 113 131 148 152 135 124 101 115 130 117 115 106 112 116 113 108 113 120 120 123 122 124 124 121 119 115 111 104
181 159 165 175 167 168 179 162 163 169 168 183 169 165 182 174 163 166 182 163 175 189 170 172 146 155 160 155 161 151 168 213 168 172 204 217 199 195 190 187 205 208 166 178 207 222 192 192 223 224 235 202 267 197 90 181 79 103 126 121 147 127 133 155 161 147 126 119 116 124 127 127 122 118 124 128 128 130 128 128 125 122 116 112 105
208 170 167 173 161 174 180 160 163 165 159 182 180 158 175 183 156 163 158 168 164 188 169 163 149 148 140 144 159 168 193 212 166 187 198 215 203 216 203 195 189 197 169 172 199 226 193 207 221 214 217 232 229 145 113 72 107 96 117 122 144 136 142 163 176 147 143 134 139 139 136 135 135 134 131 134 135 137 136 132 130 124 119 111 107
223 189 173 162 161 173 188 155 159 158 160 182 181 159 172 171 151 162 152 172 161 176 177 160 149 146 154 157 166 183 204 222 175 182 197 187 200 204 210 209 185 209 203 158 193 228 182 204 221 215 216 263 284 63 85 104 94 124 118 122 138 153 173 168 181 175 162 140 152 144 135 140 139 137 136 139 145 141 140 136 132 126 120 115 112
268 187 177 161 167 182 177 164 155 158 168 180 181 167 167 163 161 172 151 165 149 157 179 164 144 144 154 167 177 192 206 223 178 186 188 185 195 181 197 213 177 216 161 176 216 174 261 237 217 280 193 266 79 78 89 98 102 100 115 124 156 148 167 183 178 203 222 148 146 137 130 138 144 143 143 149 148 148 144 143 135 129 123 119 114
246 180 160 161 159 182 191 146 154 159 167 174 168 183 159 161 156 169 146 146 155 165 177 171 134 155 156 165 177 194 207 222 176 189 190 183 188 176 192 203 188 196 165 210 171 128 214 271 204 59 316 43 67 65 93 94 99 97 107 133 145 153 153 149 186 196 258 142 153 140 148 139 148 148 144 149 152 151 150 147 143 132 127 126 126
251 186 174 164 167 179 186 145 156 160 166 163 170 171 163 164 164 176 151 165 157 172 184 181 151 173 170 162 175 192 202 216 172 185 202 181 188 168 204 187 200 161 174 161 138 151 205 212 123 153 31 73 86 72 91 113 117 126 123 128 107 183 220 154 192 199 211 163 158 152 154 153 160 159 148 146 157 159 159 158 145 134 132 129 122
215 186 168 161 173 180 170 149 158 160 168 165 167 172 176 173 166 187 148 165 164 176 194 189 159 189 165 163 177 192 187 209 176 178 210 200 170 175 205 171 202 146 159 157 185 188 190 184 116 64 312 55 90 85 90 109 119 127 128 113 139 126 256 195 177 145 230 146 155 164 158 163 162 156 151 147 145 164 167 159 151 151 152 152 150
185 178 168 163 174 172 175 154 163 164 165 165 168 177 184 174 168 189 151 165 165 184 192 200 163 193 167 169 179 184 183 197 173 187 204 207 166 180 195 184 160 152 178 163 180 225 140 147 74 130 207 104 102 138 114 113 119 126 110 131 118 224 245 249 122 196 91 94 134 116 122 112 140 154 144 144 146 151 169 169 166 167 163 155 150
173 172 166 162 172 167 175 153 163 163 169 167 173 178 178 173 185 186 149 168 176 186 195 197 165 201 178 165 172 173 189 181 182 182 198 211 178 186 182 178 157 154 164 139 182 184 118 67 91 175 230 97 190 144 129 121 126 110 107 121 231 221 219 172 219 184 139 118 104 110 102 111 135 161 151 149 150 155 168 176 177 172 161 162 157
161 168 162 164 167 161 165 153 163 164 165 164 169 177 176 183 196 187 158 170 181 198 204 178 168 204 179 159 169 167 193 178 185 180 192 193 197 203 172 170 177 165 170 184 175 186 143 95 103 89 307 77 201 170 139 134 125 125 143 189 232 170 199 232 318 332 114 145 126 133 126 136 174 181 166 149 146 161 159 173 176 177 173 179 174
161 163 164 166 163 154 158 163 160 159 159 162 169 175 182 194 197 188 176 171 174 203 213 177 172 199 175 165 168 164 195 178 187 185 177 185 198 188 171 179 174 170 178 189 179 186 150 108 129 153 191 121 237 170 139 128 116 124 141 230 252 97 140 141 217 242 125 131 124 115 139 157 174 189 167 150 155 158 165 171 184 187 178 187 183
161 164 164 167 161 161 163 164 164 158 168 169 178 180 187 190 206 195 181 165 176 203 216 197 170 192 183 168 168 165 186 192 184 188 178 174 198 177 165 187 175 182 186 196 182 164 132 122 101 114 189 159 173 172 102 125 133 112 125 89 53 1 332 263 250 253 166 136 137 174 173 164 158 185 169 182 158 158 167 176 188 192 171 171 191
166 166 170 172 164 164 166 161 164 165 173 179 178 187 192 191 192 195 172 169 179 199 209 208 169 183 189 177 166 168 182 190 186 183 184 178 191 175 174 183 189 187 185 184 191 158 150 151 129 155 244 176 152 167 169 150 149 147 144 121 79 358 320 306 271 271 229 156 151 192 165 164 163 173 183 157 177 162 170 180 191 186 160 169 179
168 177 175 169 159 163 166 165 169 167 173 179 185 189 187 191 194 194 176 167 188 204 205 208 166 176 184 180 162 172 179 189 189 179 188 184 186 191 179 184 197 187 177 189 184 174 161 158 149 144 182 182 124 156 188 197 148 155 134 129 183 176 245 258 266 262 260 181 163 182 165 185 179 170 156 167 193 186 191 175 203 175 155 170 175
169 173 171 166 162 166 168 166 168 170 173 183 190 188 188 193 196 199 185 178 185 191 213 199 171 172 180 180 166 175 179 188 187 186 192 188 182 202 183 179 188 194 182 183 184 180 166 161 149 143 141 163 155 181 196 170 187 144 169 202 177 186 187 221 208 228 239 204 211 178 170 191 196 158 150 187 191 196 220 166 195 153 136 153 168
172 174 171 171 171 171 170 170 170 171 175 182 187 181 184 194 203 197 176 196 172 182 210 193 187 170 172 183 182 174 181 187 185 192 192 184 185 198 196 183 182 191 184 186 191 185 176 172 164 159 160 158 165 198 214 203 202 180 156 178 143 213 234 178 179 202 227 199 210 194 167 193 205 153 161 196 194 185 215 169 163 131 118 125 185
177 175 173 176 173 174 170 170 166 169 175 178 184 186 181 194 198 184 179 188 190 185 202 188 180 175 180 176 189 179 184 189 190 192 192 186 184 194 200 189 182 187 192 194 185 184 183 180 177 167 169 153 149 196 208 219 208 194 219 207 151 177 217 135 168 185 204 215 206 196 175 183 222 160 167 192 212 183 196 159 133 135 140 143 170
177 172 175 176 178 175 170 171 168 169 168 173 183 186 189 199 201 195 186 185 191 193 192 194 177 174 182 175 187 183 187 189 197 190 191 189 184 187 199 201 181 188 186 196 193 186 187 185 168 171 176 159 150 184 198 197 214 218 216 223 195 195 233 152 208 114 171 215 243 186 188 178 210 219 178 195 213 190 173 164 144 142 151 168 179
172 173 177 178 178 178 170 170 170 169 173 172 182 191 194 199 194 194 190 190 201 188 183 200 177 169 184 174 186 186 188 191 195 195 193 189 184 183 193 198 194 188 190 201 198 184 180 183 174 170 177 172 163 166 180 180 191 201 204 217 219 202 237 269 315 181 173 171 230 214 180 180 177 216 227 198 208 184 160 163 148 161 158 171 182
169 175 178 178 175 178 178 172 166 168 173 174 181 192 196 194 191 188 189 195 200 195 181 193 185 171 179 173 181 187 189 191 191 198 194 195 186 184 188 190 202 199 186 197 196 187 186 177 168 170 175 170 166 153 158 174 181 182 189 208 196 198 208 206 228 178 190 219 194 187 185 188 169 200 225 246 235 176 159 176 173 170 172 170 177
174 175 175 174 175 175 180 177 168 168 173 176 183 193 197 186 184 192 194 191 194 199 180 187 189 174 182 175 180 188 185 191 191 196 198 199 187 187 191 191 194 207 186 195 195 188 181 186 170 172 175 169 152 154 165 160 170 191 203 183 182 197 221 235 215 204 226 218 250 181 186 176 201 214 195 216 238 253 160 166 184 203 170 170 167
168 168 175 176 172 171 181 183 176 170 174 181 184 191 197 185 185 191 197 195 189 197 184 182 187 184 188 178 181 183 182 187 191 190 196 200 185 187 196 196 189 201 197 191 195 187 175 184 170 170 177 179 156 164 162 160 172 194 197 184 189 189 198 202 219 199 205 216 199 244 176 194 196 201 203 188 204 235 173 155 160 209 252 166 175